DECAYED

H-2A R/B, 43224 (Decayed)

Orbit data source: Space-Track

H-2A R/B, 43224 was space debris in LEO originally from a launch on Tue, 27 Feb 2018 UTC launched from the Tanegashima Space Center (TNSTA). Debris objects in space refer to the collection of defunct objects orbiting the Earth. Examples of debris include non-operational satellites, rocket bodies, and fragments generated from explosions, collisions, or faulty payload assembly.

Not visible in the next 10 days
H-2A R/B details
Identifier
43224, 2018-021B
Orbit
Decayed
Last TLE update7 months ago
Origin
Flag of JPMHI (JP / JPN)
ManufacturerMHI Tobishima
MissionDecayed spacecraft
Bus & MotorH-2A STAGE 2, Unknown motor
Mass4,000 kg wet, 4,000 kg dry
Launch date (UTC)
2018-02-27 (7 years ago)
Launch vehicleUnknown
Launch site
Tanegashima Space Center (TNSTA)
Object type
Payload
Rocket body
Debris
Shape & HBRCyl, 9.2 m
Radar Cross Section35.186 m², Large (>1 m²)

Expand to show TLE details & history

TLE from 7 months ago
0 H-2A R/B
1 43224U 18021B   24118.09334668  .25975779  24965-5  26321-3 0  9991
2 43224  97.2192 222.2039 0014138 264.2949 223.6135 16.50276103344486
Epoch: 2024-04-27T02:14Z
Definitive object data (Epoch: 2024-04-27T02:14:25.153Z)
Latitude51.73193°
Longitude162.22031°
Altitude153.769 km
Speed7.815 km/s
True Right ascension03h 25m 33s
True Declination51° 32' 57"
Sunlit
Object was in daylight at TLE epoch
Visualization TLE readout
Latitude45.79352°
Longitude166.90068°
Altitude4,140.256 km
Speed6.413 km/s
Apparent Right ascension06h 29m 39s
Apparent Declination35° 33' 36"
Sunlit
Object is in daylight
Visualization observer readout
Local Sidereal Time01:02:05
Azimuth65.183° ENE
Elevation27.462°
Doppler factor1
Orbital elements
Apogee altitude144.604 km
Perigee altitude126.186 km
Semi-major axis6,513.532 km
Eccentricity0.0014138
Inclination97.2192°
RAAN222.2039°
Arg. of periapsis264.2949°
True anomaly223.50189°
Mean anomaly223.6135°
Eccentric anomaly223.55768°
Mean motion4.12875 °/min
BSTAR0.00026321
Orbital period87.19 mins
Loading maneuver chart data...
Loading historical data...
Loading historical data...
Loading historical data...
Loading historical data...
Loading historical data...
Loading historical data...
Loading historical data...
Other satellites on launch #21 in the year 2018 (2018-02-27 UTC)

H-2A R/B Visibility forecast

Observer location: undefined°, undefined

This satellite is decayed
Span
Click to sort rows by Start time (UTC) header in descending order
Start Az.
Max El. time (UTC)
Max El. Az.
Max El.
End time (UTC)
End Az.
|